Wind_Speed
17 16 15 13 13 12 11 10 10 10 10 10 10 10 10 9 10 10 9 9 9 9 9 9 9 9 8 8 7 7 6 6 6 7 7 8 8 8 9 9 9 9
18 17 16 14 14 13 12 11 11 11 11 11 11 10 10 10 10 10 10 9 9 10 10 11 11 10 9 8 8 8 7 7 7 8 8 8 8 9 9 9 10 11
19 18 17 15 14 14 14 13 12 11 11 11 11 11 11 11 11 11 10 10 10 11 11 12 12 11 10 9 9 8 8 8 8 9 9 8 9 9 9 9 9 10
19 19 18 17 15 15 15 14 13 12 12 11 11 11 11 11 11 11 12 11 11 12 12 12 12 11 11 10 10 9 9 9 9 9 9 9 9 9 9 9 9 9
18 18 18 18 17 16 16 15 14 13 12 11 11 11 12 12 12 12 12 13 12 12 13 12 12 12 12 11 11 10 9 10 10 10 9 9 9 9 9 9 9 9
17 17 17 18 17 17 16 16 14 13 12 12 12 12 13 13 13 13 13 13 13 13 13 13 12 12 12 12 11 11 11 11 11 10 10 10 10 10 10 10 10 10
18 18 17 17 17 17 16 15 14 13 13 12 12 13 13 14 14 14 14 14 14 14 14 13 12 12 12 12 12 12 12 12 11 11 11 11 11 10 10 11 11 11
18 18 18 18 18 17 17 15 14 14 13 13 13 13 13 14 14 14 14 14 14 14 14 13 13 12 12 12 13 13 13 13 12 12 12 12 12 11 11 11 12 12
18 18 18 18 18 18 17 16 15 14 14 14 14 13 13 14 15 15 15 15 15 14 14 14 13 13 13 13 14 14 13 14 13 12 13 13 13 12 12 12 13 13
19 19 19 18 18 18 17 16 15 15 15 15 14 14 14 14 14 15 15 15 15 15 14 14 14 13 14 14 14 14 14 14 13 13 13 13 13 13 12 13 13 13
18 19 19 19 18 18 17 16 16 16 16 16 15 15 14 13 14 14 15 15 15 15 14 14 14 14 15 15 15 14 14 14 14 13 13 13 13 13 13 13 14 14
18 19 19 19 19 18 17 17 17 17 17 16 16 15 14 14 14 14 14 15 15 14 14 14 14 15 15 15 14 14 14 15 15 14 14 14 13 13 13 13 14 14
18 18 18 18 18 18 18 18 17 17 17 16 16 15 15 14 14 14 15 14 15 15 14 14 14 14 15 15 14 14 14 15 15 14 14 13 13 14 13 14 14 14
17 17 16 16 17 17 18 18 18 17 17 17 16 15 15 15 15 15 15 14 15 15 14 14 14 14 15 15 14 14 14 14 14 14 14 14 14 14 14 14 14 14
15 16 16 15 15 16 17 18 18 18 17 17 17 16 16 15 15 15 15 15 15 15 14 14 14 14 15 15 14 14 13 13 14 14 14 14 14 14 14 15 15 15
15 15 16 16 16 16 17 18 18 18 17 17 18 17 17 17 16 16 16 16 15 15 15 15 15 15 15 14 14 14 13 13 14 14 14 14 15 15 15 15 16 16
16 16 16 17 16 16 16 17 18 17 17 18 18 18 18 17 17 17 17 17 16 16 16 16 16 16 15 14 15 15 15 15 15 15 15 15 16 16 16 16 15 16
18 17 17 17 17 17 16 16 17 18 18 18 18 18 18 18 18 18 18 18 18 18 18 17 17 16 15 15 15 16 17 17 17 17 17 17 17 17 17 16 15 15
20 18 17 17 17 17 17 17 17 18 18 18 18 17 18 18 19 19 18 18 18 19 19 18 17 16 16 16 16 16 17 17 18 18 18 18 18 17 17 17 16 16
22 20 18 17 17 17 18 18 18 18 19 19 19 18 18 18 18 18 19 19 18 19 19 18 18 17 17 17 17 17 17 18 19 20 20 20 19 18 18 17 17 17
23 21 19 17 16 17 19 20 19 18 17 19 19 19 19 18 18 19 18 18 19 20 20 19 19 18 18 18 18 18 18 19 19 20 20 20 19 19 19 18 18 18
20 20 19 17 14 15 18 20 20 18 17 18 19 19 20 19 19 19 19 18 19 20 20 20 20 20 19 19 19 19 20 21 21 20 20 20 20 20 20 20 20 20
18 19 19 17 16 15 17 19 20 20 19 18 18 19 20 20 20 20 20 20 19 19 19 20 21 22 22 22 21 21 21 22 23 23 22 22 22 22 22 22 22 23
17 18 17 16 17 18 18 19 21 21 20 19 19 20 20 21 21 21 21 21 21 20 20 21 22 23 24 24 24 23 23 23 24 25 25 25 25 25 25 25 25 24
17 19 19 17 18 19 20 21 20 19 19 20 20 20 21 22 23 22 23 23 23 22 22 23 25 25 26 26 26 26 26 26 26 26 26 27 27 27 27 28 28 27
18 19 18 18 18 17 17 17 16 16 17 18 18 18 20 23 23 22 21 22 21 21 21 23 26 27 28 28 28 28 28 29 30 29 28 28 28 27 26 26 27 27
Wind_Direction
206 206 207 208 206 203 203 206 211 217 221 221 221 219 216 213 213 218 221 222 228 231 232 232 232 236 239 235 230 232 242 247 248 251 253 255 257 258 261 266 269 273
210 211 211 212 212 210 209 211 217 223 227 228 226 222 219 217 217 219 222 225 232 235 235 234 233 235 239 239 238 241 246 248 248 252 254 257 260 261 263 266 268 272
213 214 215 216 216 215 214 215 218 222 226 228 227 224 222 223 223 223 223 225 231 236 237 235 235 235 238 241 244 246 248 248 248 251 254 257 261 262 263 265 267 270
216 217 219 220 221 220 221 222 222 223 225 226 225 224 224 226 228 226 224 225 229 234 238 238 237 237 237 239 242 245 247 249 249 251 254 256 259 261 263 266 268 270
221 222 222 223 222 222 224 226 227 227 226 226 225 225 226 228 229 228 227 227 230 234 237 239 239 239 238 238 240 243 244 246 249 250 251 252 255 260 264 267 269 272
221 222 224 224 222 222 225 227 228 228 228 227 226 226 229 232 233 232 231 231 233 236 238 238 239 239 238 239 241 243 243 244 247 249 250 250 252 256 262 266 270 272
219 221 222 223 223 224 226 227 227 227 229 231 230 229 232 234 236 236 235 234 236 238 240 240 239 238 239 240 242 245 245 247 249 251 253 254 254 256 260 266 270 272
222 222 222 223 224 226 228 229 229 228 229 232 233 233 233 235 237 238 238 237 237 239 242 242 241 239 239 240 243 245 247 249 251 253 255 257 258 259 262 266 269 272
225 225 226 226 226 227 228 229 230 229 229 232 234 234 235 236 237 239 240 240 239 240 241 242 242 239 237 239 243 245 247 250 251 253 255 257 258 259 261 263 266 271
225 227 229 230 230 230 229 229 230 229 229 232 234 235 237 238 239 241 242 242 242 241 241 242 242 239 238 240 243 246 248 251 252 254 255 256 256 256 257 259 263 267
225 227 230 232 233 234 233 230 230 231 231 233 235 236 237 240 241 242 242 242 242 242 242 243 243 242 241 242 245 248 249 251 253 254 254 255 255 254 255 257 260 264
225 228 230 233 234 235 235 232 230 231 233 235 236 237 237 239 241 241 241 242 243 244 245 246 247 246 245 243 245 248 248 249 251 252 252 253 254 254 255 257 260 261
226 229 232 234 235 236 235 233 231 231 233 235 236 238 238 239 241 241 243 244 245 246 248 249 249 248 247 246 246 247 249 249 249 249 249 250 253 255 256 257 259 260
227 230 232 234 236 237 236 235 234 233 233 234 236 238 239 242 243 244 245 247 247 247 248 249 249 248 248 249 249 249 249 249 248 247 248 251 255 258 258 258 259 259
230 231 232 234 234 235 235 235 236 235 235 235 237 239 241 243 244 245 246 247 247 246 245 247 248 249 250 251 250 249 248 248 248 248 250 254 257 259 260 261 260 260
233 232 233 234 234 233 233 234 236 237 237 237 238 240 242 243 242 242 244 245 246 245 245 247 250 251 252 251 248 246 247 250 252 252 254 256 257 259 260 261 262 261
236 236 236 236 237 237 236 235 236 238 239 240 240 242 243 243 241 240 242 244 245 245 245 249 252 252 253 252 248 244 245 250 255 257 259 260 261 262 261 262 263 263
238 240 240 239 240 241 241 240 239 240 241 242 243 245 245 244 242 241 243 244 245 246 247 251 255 254 253 253 252 249 248 249 253 256 259 262 263 264 264 266 267 265
242 244 244 243 241 241 243 245 244 244 245 246 247 247 246 244 243 243 244 245 247 249 251 254 257 258 256 255 257 258 256 256 258 260 263 265 265 265 266 267 267 265
242 244 246 246 245 241 238 240 244 246 248 248 246 246 246 244 242 243 245 246 248 252 254 256 259 260 258 257 257 259 260 260 262 264 266 266 265 266 268 268 268 268
242 244 246 248 251 250 242 236 236 240 244 245 243 242 243 242 241 243 247 249 252 254 257 260 262 263 262 261 259 259 261 262 264 266 266 265 264 265 267 269 271 271
246 247 247 245 251 260 255 243 233 229 234 240 243 245 245 243 241 242 245 251 256 261 263 265 265 265 265 265 264 263 263 263 264 266 266 265 264 265 266 268 270 270
248 247 244 241 244 254 261 254 240 231 231 234 241 250 251 247 244 244 244 247 253 261 267 268 267 267 268 267 267 267 266 265 263 263 263 264 264 266 268 269 269 268
248 249 247 247 248 252 260 261 254 246 244 243 248 257 261 257 250 247 248 249 252 258 266 270 271 270 268 267 268 269 269 268 265 262 260 261 263 265 267 268 267 267
254 255 253 255 260 259 258 260 259 255 252 253 257 264 269 268 260 254 254 256 257 260 265 267 269 269 267 267 267 268 269 270 268 265 261 259 260 262 264 265 265 266
250 253 251 255 263 264 257 255 255 253 253 257 262 266 269 270 267 262 261 262 261 262 262 262 265 267 266 265 265 265 267 268 268 267 265 263 262 261 261 263 263 264
Height
1591 1592 1594 1595 1596 1597 1598 1599 1600 1601 1602 1603 1603 1604 1605 1606 1607 1607 1608 1609 1609 1610 1611 1611 1611 1612 1613 1613 1614 1614 1615 1615 1615 1615 1615 1616 1616 1616 1616 1617 1617 1617
1590 1591 1593 1594 1595 1596 1597 1598 1599 1600 1601 1602 1603 1603 1604 1605 1606 1607 1607 1608 1609 1609 1610 1610 1611 1611 1612 1612 1613 1613 1614 1614 1614 1614 1614 1615 1615 1615 1615 1615 1615 1615
1589 1591 1592 1593 1594 1595 1596 1597 1598 1599 1600 1601 1601 1602 1603 1604 1605 1606 1606 1607 1608 1608 1609 1610 1610 1610 1611 1611 1612 1612 1613 1613 1613 1613 1613 1613 1614 1614 1614 1614 1614 1614
1588 1590 1591 1592 1593 1595 1595 1596 1597 1598 1599 1600 1600 1601 1602 1603 1604 1605 1605 1606 1607 1607 1608 1609 1609 1609 1610 1610 1611 1611 1612 1612 1612 1612 1612 1612 1612 1612 1612 1612 1612 1613
1587 1588 1590 1591 1592 1593 1594 1595 1596 1597 1598 1599 1600 1601 1601 1602 1603 1604 1604 1605 1606 1606 1607 1607 1608 1608 1609 1609 1610 1610 1610 1611 1611 1611 1611 1611 1611 1611 1611 1611 1611 1612
1586 1587 1589 1590 1591 1592 1593 1594 1595 1596 1597 1598 1599 1600 1600 1601 1602 1603 1603 1604 1605 1605 1606 1606 1607 1607 1608 1608 1609 1609 1610 1610 1610 1610 1610 1610 1610 1610 1610 1610 1610 1611
1584 1585 1587 1588 1590 1591 1592 1593 1594 1595 1596 1597 1598 1598 1599 1600 1601 1602 1602 1603 1603 1604 1604 1605 1606 1606 1607 1607 1608 1608 1608 1609 1609 1609 1609 1609 1609 1609 1609 1609 1609 1609
1582 1584 1585 1587 1588 1589 1590 1592 1593 1594 1595 1596 1596 1597 1598 1599 1600 1600 1601 1601 1602 1603 1603 1604 1604 1605 1606 1606 1606 1607 1607 1608 1608 1608 1608 1608 1608 1608 1608 1608 1608 1608
1581 1582 1583 1585 1586 1587 1589 1590 1591 1592 1593 1594 1595 1596 1596 1597 1598 1599 1599 1600 1600 1601 1602 1602 1603 1603 1604 1604 1605 1606 1606 1606 1606 1607 1607 1607 1607 1607 1607 1607 1607 1607
1579 1580 1582 1583 1584 1586 1587 1588 1590 1591 1592 1593 1594 1594 1595 1596 1596 1597 1598 1598 1599 1600 1600 1601 1601 1602 1602 1603 1603 1604 1604 1605 1605 1605 1605 1605 1605 1605 1606 1606 1606 1606
1578 1579 1580 1582 1583 1584 1586 1587 1588 1589 1590 1591 1592 1593 1593 1594 1595 1595 1596 1597 1597 1598 1599 1599 1600 1600 1601 1601 1602 1602 1603 1603 1603 1603 1604 1604 1604 1604 1604 1604 1604 1604
1576 1577 1579 1580 1582 1583 1584 1586 1587 1588 1589 1589 1590 1591 1592 1593 1593 1594 1594 1595 1596 1597 1597 1598 1598 1599 1599 1600 1600 1601 1601 1601 1601 1602 1602 1602 1602 1602 1602 1602 1602 1603
1574 1576 1577 1579 1580 1581 1583 1584 1585 1586 1587 1588 1589 1590 1591 1591 1592 1593 1593 1594 1595 1595 1596 1597 1597 1598 1598 1598 1599 1599 1599 1600 1600 1600 1600 1601 1601 1601 1601 1601 1601 1601
1573 1575 1576 1577 1579 1580 1581 1582 1583 1585 1585 1587 1588 1588 1589 1590 1591 1591 1592 1593 1593 1594 1595 1595 1595 1596 1596 1597 1597 1597 1598 1598 1598 1599 1599 1599 1599 1599 1599 1599 1599 1599
1572 1573 1574 1575 1576 1578 1579 1580 1582 1583 1584 1585 1586 1587 1588 1589 1589 1590 1591 1591 1592 1592 1593 1593 1594 1594 1594 1595 1596 1596 1596 1597 1597 1597 1598 1598 1598 1598 1598 1598 1598 1598
1570 1571 1572 1573 1574 1576 1577 1578 1579 1581 1582 1583 1584 1585 1586 1587 1588 1589 1589 1590 1590 1591 1591 1592 1592 1592 1593 1593 1594 1594 1595 1595 1595 1595 1596 1596 1596 1596 1596 1596 1596 1596
1568 1569 1570 1571 1572 1574 1575 1576 1578 1579 1580 1581 1582 1583 1584 1585 1586 1587 1587 1588 1589 1589 1590 1590 1590 1591 1591 1592 1592 1592 1593 1593 1593 1593 1593 1594 1594 1594 1594 1594 1594 1594
1565 1566 1568 1569 1570 1572 1573 1575 1576 1577 1578 1579 1580 1581 1582 1583 1584 1584 1585 1586 1587 1587 1588 1588 1589 1589 1590 1590 1590 1590 1591 1591 1591 1591 1591 1591 1592 1592 1592 1592 1591 1592
1563 1564 1566 1567 1568 1569 1571 1572 1574 1575 1576 1577 1578 1579 1580 1580 1581 1582 1583 1584 1585 1585 1586 1586 1587 1587 1588 1588 1589 1589 1589 1589 1589 1589 1589 1589 1589 1589 1589 1589 1589 1589
1561 1562 1563 1565 1566 1567 1568 1569 1571 1572 1573 1575 1576 1577 1578 1578 1579 1580 1581 1582 1582 1583 1583 1583 1584 1585 1586 1586 1587 1587 1587 1587 1587 1587 1587 1587 1587 1587 1587 1586 1585 1585
1558 1559 1561 1563 1564 1566 1566 1567 1568 1569 1571 1572 1574 1575 1575 1576 1576 1577 1578 1579 1580 1581 1581 1581 1582 1583 1584 1584 1584 1585 1585 1585 1585 1585 1585 1585 1584 1584 1584 1583 1583 1583
1556 1557 1559 1560 1562 1564 1565 1566 1566 1566 1567 1569 1571 1572 1573 1573 1574 1574 1575 1576 1577 1578 1579 1579 1579 1580 1581 1582 1582 1582 1582 1582 1582 1582 1583 1582 1582 1582 1582 1581 1581 1581
1554 1556 1556 1557 1559 1561 1563 1565 1565 1564 1565 1566 1568 1570 1571 1572 1572 1572 1572 1573 1574 1575 1576 1576 1577 1578 1578 1579 1579 1580 1580 1580 1580 1580 1580 1580 1580 1580 1579 1579 1579 1579
1553 1555 1555 1555 1556 1558 1560 1562 1563 1563 1564 1565 1566 1567 1569 1569 1569 1569 1570 1571 1571 1572 1573 1574 1574 1575 1576 1576 1576 1577 1577 1577 1577 1577 1577 1577 1577 1577 1577 1576 1576 1576
1550 1553 1553 1553 1554 1556 1557 1559 1560 1561 1561 1562 1563 1565 1567 1567 1567 1567 1568 1568 1569 1569 1570 1571 1571 1572 1572 1573 1573 1574 1574 1574 1574 1574 1573 1574 1574 1573 1573 1573 1573 1573
1548 1550 1550 1550 1553 1554 1555 1555 1556 1557 1558 1558 1559 1561 1564 1565 1565 1565 1565 1565 1566 1566 1566 1567 1567 1568 1569 1569 1570 1570 1570 1570 1570 1570 1570 1570 1570 1570 1569 1569 1569 1569